TUBIN
1 48900U 21059X   25260.28416343  .00067946  00000-0  54651-3 0  9990
2 48900  97.6770  78.3396 0002984 216.8977 143.2079 15.70744677235631
LEDSAT
1 49069U 21073D   25260.19819905  .00218223  00000-0  10381-2 0  9991
2 49069  97.3768 347.0672 0001624  75.0118 285.1330 15.82307377227055
CUTE
1 49263U 21088D   25259.70723602  .00023375  00000-0  39350-3 0  9996
2 49263  97.4425 339.1136 0005701 216.1741 143.9126 15.51705182219775
TeikyoSat 4
1 49396U 21102B   25260.02869266  .00001934  00000-0  12929-3 0  9994
2 49396  97.4030 294.8511 0013368 146.2384 213.9699 15.08039931211535
Z-Sat
1 49399U 21102E   25260.23469768  .00003999  00000-0  21542-3 0  9997
2 49399  97.3726 298.7823 0019464 116.4203 243.9030 15.15207994212065
KOSEN 1
1 49402U 21102H   25260.08494407  .00007383  00000-0  32904-3 0  9998
2 49402  97.3620 302.8302 0017189  91.5857 268.7348 15.21581276212413
HO-113
1 50466U 21131B   25260.34196392  .00000453  00000-0  15487-3 0  9991
2 50466  98.5082 349.2015 0004159 181.5434 178.5742 14.40925005195812
SNUGLITE 2
1 52899U 22065F   25259.98103635  .00001153  00000-0  23192-3 0  9996
2 52899  98.1830  41.0769 0008091 154.1747 205.9861 14.63446148171021
UmKA 1 (RS40S)
1 57172U 23091G   25260.21831652  .00005227  00000-0  27161-3 0  9996
2 57172  97.5488 315.0962 0013577 356.5865   3.5272 15.16449187122574
CubeBel-2 (EU11S)
1 57175U 23091K   25260.23063003  .00008765  00000-0  39630-3 0  9992
2 57175  97.5485 316.9066 0011217   2.9773 357.1527 15.21119384122691
ENSO
1 58470U 23185J   25260.71561350  .00126009  00000-0  10047-2 0  9998
2 58470  97.3623 339.8907 0003127  89.6642 270.4979 15.70767174100669
SONATE-2
1 59112U 24043Q   25260.15250516  .00021351  00000-0  55042-3 0  9992
2 59112  97.5248  33.6218 0011001 117.9244 242.3117 15.39152937 85636
MO-122
1 60209U 24125G   25260.00758728  .00021679  00000-0  54684-3 0  9998
2 60209  97.2677 110.6884 0018458 135.7374 224.5352 15.39695480 67232
GRBBeta
1 60237U 24128C   25260.12949459  .00004762  00000-0  35096-3 0  9998
2 60237  61.9901  92.2538 0056796  79.0266 281.7208 15.03482257 65161
Curium One
1 60242U 24128H   25260.11679277  .00008392  00000-0  55751-3 0  9994
2 60242  61.9798  88.9863 0056580  75.8289 284.9081 15.06591892 65224
ROBUSTA-3A
1 60243U 24128J   25260.08589431  .00007465  00000-0  50522-3 0  9994
2 60243  61.9871  90.2732 0056160  73.2874 287.4371 15.06051657 65202
CatSat
1 60246U 24125J   25259.80828228  .00023300  00000-0  70459-3 0  9999
2 60246  97.2492 108.5283 0041404 100.0635 260.5283 15.33347454 65172
HYPERVIEW-1G (RS66S)
1 61772U 24199AP  25260.26185568  .00022056  00000-0  55798-3 0  9996
2 61772  97.3368 129.1013 0012113 184.0691 176.0459 15.39707995 92272
AO-123
1 61781U 24199AY  25260.25476187  .00006792  00000-0  23813-3 0  9997
2 61781  97.3391 126.7418 0014680 197.4208 162.6531 15.29675812 92119
ZIMSAT 2
1 61783U 24199BA  25260.19792312  .00046966  00000-0  86726-3 0  9992
2 61783  97.3322 130.6388 0011370 174.0416 186.0972 15.48881086 95520
HADES-R (SO-124)
1 62690U 25009CK  25258.75319976  .00064710  00000-0  17851-2 0  9990
2 62690  97.4018 339.6115 0002933 129.6914 230.4589 15.36859994 37180
HYDRA-T
1 62692U 25009CM  25259.69289883  .00059839  00000-0  16211-2 0  9994
2 62692  97.4017 340.6436 0002563 122.4044 237.7449 15.37447818 37334
JINJUSat 1B
1 63210U 25052A   25260.15811917  .00011007  00000-0  47286-3 0  9993
2 63210  97.4269 153.0828 0003762  10.5734 349.5581 15.22846014 28396
NUSHSAT 1
1 63211U 25052B   25259.14550899  .00017271  00000-0  72955-3 0  9990
2 63211  97.4253 152.1187 0004126  18.5309 341.6077 15.23310713 28249
TEVEL2-4
1 63213U 25052D   25259.64133838  .00015224  00000-0  65119-3 0  9997
2 63213  97.4172 152.3263 0004063  35.7177 324.4331 15.22911566 28314
TEVEL2-5
1 63214U 25052E   25260.16936295  .00012205  00000-0  52324-3 0  9995
2 63214  97.4175 152.8429 0003996  35.4841 324.6661 15.22887649 28396
TEVEL2-6
1 63215U 25052F   25259.64845079  .00015385  00000-0  65956-3 0  9993
2 63215  97.4173 152.3204 0004140  36.6460 323.5059 15.22833551 28317
TEVEL2-1
1 63217U 25052H   25260.13472405  .00013322  00000-0  57576-3 0  9998
2 63217  97.4147 152.6792 0004667  43.2087 316.9515 15.22587985 28385
TEVEL2-3
1 63218U 25052J   25259.60901436  .00014492  00000-0  62605-3 0  9998
2 63218  97.4149 152.1625 0004793  45.1029 315.0596 15.22584189 28309
TEVEL2-2
1 63219U 25052K   25260.13543887  .00013289  00000-0  57441-3 0  9996
2 63219  97.4148 152.6796 0004685  43.1540 317.0063 15.22584836 28387
TEVEL2-9
1 63237U 25052AD  25259.69037524  .00013428  00000-0  60266-3 0  9995
2 63237  97.4213 152.0567 0009232  42.3670 317.8278 15.21269209 28297
TEVEL2-7
1 63238U 25052AE  25259.69745222  .00013502  00000-0  60751-3 0  9999
2 63238  97.4215 152.0516 0009318  42.3055 317.8898 15.21179316 28293
TEVEL2-8
1 63239U 25052AF  25259.63570834  .00014009  00000-0  63074-3 0  9993
2 63239  97.4215 151.9793 0009318  42.6017 317.5940 15.21148214 28287
HYDRA-W
1 63490U 25052BL  25259.65117468  .00039063  00000-0  13908-2 0  9991
2 63490  97.4157 153.0459 0012054  37.8907 322.3179 15.28774011 28362
HADES-ICM (SO-125)
1 63492U 25052BN  25259.44179787  .00039158  00000-0  14292-2 0  9994
2 63492  97.4163 152.7298 0012499  41.2990 318.9193 15.27952270 28329
